Regional Weather Roundup
Issued by NWS Green Bay, WI

Home | Current Version | Previous Version | Text Only | Print | Product List | Glossary On
Versions: 1 2 3 4 5 6 7 8 9 10 11 12 13 14 15 16 17 18 19 20 21 22 23 24 25 26 27 28 29 30 31 32 33 34 35 36 37 38 39 40 41 42 43 44 45 46 47 48 49 50
000
ASUS43 KGRB 042111
RWRGRB

NORTH-CENTRAL AND NORTHEAST WISCONSIN REGIONAL WEATHER ROUNDUP
NATIONAL WEATHER SERVICE GREEN BAY WI
400 PM CDT FRI SEP 04 2015

WIZ005-009-010>012-018-019-042200-
NORTH CENTRAL WISCONSIN

CITY           SKY/WX    TMP DP  RH WIND       PRES   REMARKS
IRONWOOD       FAIR      84  64  51 S10       29.97F
MANITOWISH WTR FAIR      82  65  56 SE5       30.04S
ARBOR VITAE    FAIR      82  65  55 SE7       30.04S
EAGLE RIVER    FAIR      82  60  47 S9        30.04F
LAND O LAKES   FAIR      83  61  48 SE12      30.06S
RHINELANDER    FAIR      82  63  52 E7        30.05F
PHILLIPS       FAIR      82  66  58 SE8       30.02F
ANTIGO         FAIR      80  66  61 E7        30.05F
TOMAHAWK       FAIR      82  64  55 S3        30.04S
MERRILL        FAIR      81  67  63 SE6       30.04F
$$

WIZ013-073-042200-
NORTHEAST WISCONSIN

CITY           SKY/WX    TMP DP  RH WIND       PRES   REMARKS
IRON MOUNTAIN  FAIR      82  65  56 VRB5      30.03F
MARINETTE      FAIR      73  63  68 E10       30.03F
OCONTO         FAIR      74  68  81 E7        30.04S
$$

WIZ017-030-035>037-045-042200-
CENTRAL WISCONSIN

CITY           SKY/WX    TMP DP  RH WIND       PRES   REMARKS
MEDFORD        FAIR      78  67  69 E8        30.02F
WAUSAU         PTSUNNY   82  66  58 E7        30.02F
MOSINEE        MOSUNNY   79  66  65 SE5       30.04F
MARSHFIELD     FAIR      81  64  56 E8        30.02F
WISC RAPIDS    PTSUNNY   82  65  56 SE7       30.03F
STEVENS POINT  FAIR      76  66  70 E5        30.04S
WAUPACA        FAIR      80  68  66 CALM      30.03F
SHAWANO        NOT AVBL
CLINTONVILLE   FAIR      79  66  65 CALM      30.02F
WAUTOMA        FAIR      80  67  64 CALM      30.03F
$$

WIZ038-039-048-051-042200-
FOX VALLEY

CITY           SKY/WX    TMP DP  RH WIND       PRES   REMARKS
NWS GREEN BAY  FAIR      77  67  71 NE8       30.04S
APPLETON       PTSUNNY   75  63  64 VRB5      30.02F
OSHKOSH        PTSUNNY   74  65  73 E6        30.04F
FOND DU LAC    CLOUDY    75  66  73 NE8       30.04F
$$

WIZ022-050-052-042200-
EAST CENTRAL WISCONSIN

CITY           SKY/WX    TMP DP  RH WIND       PRES   REMARKS
EPHRAIM        MOCLDY    74  65  74 E8        30.04F
STURGEON BAY   CLOUDY    73  64  73 CALM      30.06F
MANITOWOC      CLOUDY    72  67  84 MISG      30.04F
SHEBOYGAN      CLOUDY    76  67  73 N5        30.03F
$$

LMZ563-521-522-541>543-042200-
LAKESHORE

STATION/POSITION TIME  TEMP    WIND        PRES    VSBY  WAVE
                       AIR SEA DIR/SP/G                  HT/PER
                 (UTC) (F)     (DEG/KT/KT) (MB)    (MI)  (FT/S)
SHEBOYGAN LKSHOR 2100   64      60/  7/  7 1017.1F
KEWAUNEE LKSHORE 2000   65      30/  3/  4 1016.8R
ALGOMA MARINA    2014           80/ 11/ 12   N/A
NORTHPORT PIER   2000   69      70/  9/ 11 1017.6S
N MID LAKE BUOY  2050   68 67   20/ 10/ 10 1017.2F         1/ 3
S GREEN BAY BUOY 2000   68 67   50/ 12/ 16 1018.6
SISTER BAY LKSHO 2041   80     160/  9/ 12   N/A
CHAMBERS ISLAND  2000   67      20/  9/ 10 1017.6F
MENOMINEE LKSHOR 2000   68      40/ 13/ 15 1016.3F
$$



USA.gov is the U.S. government's official web portal to all federal, state and local government web resources and services.